Location: Burera
(21.3780°N, 81.9534°E)
Time: 23:00:23
(UTC+00:00)

Cosmos-2242 - Pass Details

Date: 13 August 2020
Orbit: 590 x 618 km, 82.5° (Epoch: 22 September)

Event Time Altitude Azimuth Distance (km) Brightness Sun altitude
Rises 23:35:48 0° 193° (SSW) 2,853 6.1 -8.5°
Reaches altitude 10° 23:38:03 10° 198° (SSW) 1,956 5.3 -8.0°
Maximum altitude 23:42:17 55° 276° (W) 736 3.2 -7.1°
Drops below altitude 10° 23:46:35 10° 354° (N) 1,975 5.8 -6.1°
Sets 23:48:51 0° 359° (N) 2,885 6.7 -5.6°
